Date String (YYYY-MM-DD hh:mm:ss) UTC,Instrument flags,Ambient pressure (hPa),Sample flow (lpm),Bypass flow (lpm),Sample temperature (°C),Ambient temperature (°C),ASC tube jacket temperature (°C),LED temperature (°C),Box temperature (°C),Sample RH (%),Span deviation,Mass concentration (μg/m³),Mass concentration (μg/m³),Mass concentration (μg/m³)
DateTimeUTC,F1_M11,P_M11,Q1_M11,Q2_M11,T1_M11,T2_M11,T3_M11,T4_M11,T5_M11,U1_M11,ZSPAN_M11,X0_M11,X2_M11,X1_M11
2022-08-14 17:00:00,,0829.2,5.00,0.00,29.7,27.5,00.0,38.4,31.2,33.4,0000.0,0013.06,0005.37,0004.54
2022-08-14 17:01:00,,0829.3,5.01,0.00,29.6,27.7,00.0,38.4,31.2,33.4,0000.0,0012.28,0005.37,0004.54
2022-08-14 17:02:00,,0829.3,4.99,0.00,29.6,27.8,00.0,38.4,31.3,33.3,0000.0,0011.83,0005.36,0004.53
2022-08-14 17:03:00,,0829.4,4.99,0.00,29.7,28.0,00.0,38.4,31.3,33.2,0000.0,0012.51,0005.36,0004.53
2022-08-14 17:04:00,,0829.4,5.00,0.00,29.7,28.2,00.0,38.4,31.4,33.3,0000.0,0011.60,0005.35,0004.52
2022-08-14 17:05:00,,0829.4,5.01,0.00,29.7,28.3,00.0,38.4,31.4,31.3,0000.0,0010.70,0005.34,0004.51
2022-08-14 17:06:00,,0829.4,5.00,0.00,29.7,28.2,00.0,38.4,31.4,31.2,0000.0,0010.87,0005.29,0004.48
2022-08-14 17:07:00,,0829.4,4.99,0.00,29.7,27.6,00.0,38.3,31.2,30.4,0000.0,0010.90,0005.29,0004.46
2022-08-14 17:08:00,,0829.4,5.00,0.00,29.6,27.3,00.0,38.3,31.1,31.8,0000.0,0010.71,0005.25,0004.44
2022-08-14 17:09:00,,0829.4,5.01,0.00,29.6,27.3,00.0,38.3,31.1,33.3,0000.0,0010.68,0005.22,0004.43
2022-08-14 17:10:00,,0829.3,4.99,0.00,29.5,27.4,00.0,38.3,31.1,32.9,0000.0,0011.02,0005.22,0004.44
2022-08-14 17:11:00,,0829.3,5.01,0.00,29.5,27.6,00.0,38.3,31.2,32.5,0000.0,0011.15,0005.20,0004.43
2022-08-14 17:12:00,,0829.2,4.99,0.00,29.5,27.8,00.0,38.3,31.2,31.5,0000.0,0011.32,0005.20,0004.41
2022-08-14 17:13:00,,0829.4,5.01,0.00,29.5,27.9,00.0,38.3,31.3,32.6,0000.0,0011.17,0005.19,0004.40
2022-08-14 17:14:00,,0829.3,4.99,0.00,29.5,28.1,00.0,38.3,31.3,32.1,0000.0,0010.84,0005.19,0004.39
2022-08-14 17:15:00,,0829.3,5.00,0.00,29.6,28.2,00.0,38.3,31.4,30.9,0000.0,0010.73,0005.16,0004.37
2022-08-14 17:16:00,,0829.4,5.00,0.00,29.6,28.2,00.0,38.3,31.3,30.7,0000.0,0010.56,0005.12,0004.37
2022-08-14 17:17:00,,0829.2,5.01,0.00,29.5,27.7,00.0,38.2,31.2,30.9,0000.0,0010.17,0005.13,0004.37
2022-08-14 17:18:00,,0829.2,5.01,0.00,29.5,27.3,00.0,38.2,31.1,31.7,0000.0,0010.10,0005.10,0004.37
2022-08-14 17:19:00,,0829.2,5.00,0.00,29.4,27.3,00.0,38.2,31.1,32.3,0000.0,0010.63,0005.11,0004.39
2022-08-14 17:20:00,,0829.2,5.00,0.00,29.4,27.4,00.0,38.2,31.0,33.2,0000.0,0010.53,0005.14,0004.41
2022-08-14 17:21:00,,0829.2,5.01,0.00,29.4,27.5,00.0,38.2,31.0,33.2,0000.0,0010.12,0005.15,0004.43
2022-08-14 17:22:00,,0829.2,4.99,0.00,29.4,27.7,00.0,38.2,31.1,33.2,0000.0,0010.25,0005.15,0004.44
2022-08-14 17:23:00,,0829.3,5.00,0.00,29.4,27.9,00.0,38.2,31.2,32.4,0000.0,0010.10,0005.10,0004.46
2022-08-14 17:24:00,,0829.2,5.00,0.00,29.4,28.0,00.0,38.2,31.3,32.1,0000.0,0009.97,0005.08,0004.49
2022-08-14 17:25:00,,0829.3,5.01,0.00,29.4,28.2,00.0,38.2,31.3,32.1,0000.0,0009.54,0005.04,0004.50
2022-08-14 17:26:00,,0829.3,4.99,0.00,29.5,28.2,00.0,38.2,31.3,32.0,0000.0,0009.53,0005.05,0004.50
2022-08-14 17:27:00,,0829.3,4.99,0.00,29.4,27.7,00.0,38.1,31.1,32.6,0000.0,0009.52,0005.08,0004.52
2022-08-14 17:28:00,,0829.3,5.01,0.00,29.4,27.3,00.0,38.1,31.0,33.3,0000.0,0010.28,0005.12,0004.56
2022-08-14 17:29:00,,0829.3,5.00,0.00,29.3,27.2,00.0,38.1,31.0,33.5,0000.0,0010.79,0005.15,0004.59
2022-08-14 17:30:00,,0829.3,5.00,0.00,29.3,27.3,00.0,38.1,30.9,34.4,0000.0,0010.58,0005.18,0004.61
2022-08-14 17:31:00,,0829.2,5.01,0.00,29.3,27.5,00.0,38.1,31.0,35.0,0000.0,0010.95,0005.20,0004.61
2022-08-14 17:32:00,,0829.2,5.01,0.00,29.4,27.7,00.0,38.1,31.2,35.3,0000.0,0011.01,0005.18,0004.60
2022-08-14 17:33:00,,0829.2,4.99,0.00,29.7,27.8,00.0,38.1,31.4,34.1,0000.0,0010.83,0005.15,0004.59
2022-08-14 17:34:00,,0829.2,5.00,0.00,29.9,28.0,00.0,38.1,31.4,34.3,0000.0,0010.78,0005.17,0004.59
2022-08-14 17:35:00,,0829.2,5.00,0.00,30.0,28.2,00.0,38.1,31.5,33.4,0000.0,0010.82,0005.17,0004.58
2022-08-14 17:36:00,,0829.2,5.01,0.00,30.0,28.2,00.0,38.2,31.4,33.0,0000.0,0010.89,0005.19,0004.58
2022-08-14 17:37:00,,0829.2,5.00,0.00,30.0,27.8,00.0,38.2,31.3,33.5,0000.0,0010.89,0005.21,0004.59
2022-08-14 17:38:00,,0829.1,4.99,0.00,30.0,27.4,00.0,38.2,31.2,33.5,0000.0,0010.96,0005.25,0004.60
2022-08-14 17:39:00,,0829.2,4.99,0.00,29.9,27.3,00.0,38.2,31.1,33.0,0000.0,0010.45,0005.25,0004.60
2022-08-14 17:40:00,,0829.1,5.01,0.00,29.9,27.3,00.0,38.2,31.1,32.9,0000.0,0010.23,0005.29,0004.61
2022-08-14 17:41:00,,0829.1,4.99,0.00,29.8,27.5,00.0,38.3,31.1,33.5,0000.0,0010.01,0005.30,0004.60
2022-08-14 17:42:00,,0829.1,5.00,0.00,29.8,27.7,00.0,38.3,31.2,33.6,0000.0,0009.87,0005.31,0004.61
2022-08-14 17:43:00,,0829.1,5.00,0.00,29.8,27.8,00.0,38.3,31.3,32.9,0000.0,0010.05,0005.33,0004.61
2022-08-14 17:44:00,,0829.1,5.00,0.00,29.8,28.0,00.0,38.3,31.3,32.8,0000.0,0009.93,0005.35,0004.62
2022-08-14 17:45:00,,0829.1,5.00,0.00,29.8,28.2,00.0,38.3,31.4,32.4,0000.0,0010.04,0005.38,0004.63
2022-08-14 17:46:00,,0829.0,5.00,0.00,29.8,28.0,00.0,38.4,31.3,32.6,0000.0,0010.19,0005.42,0004.63
2022-08-14 17:47:00,,0829.1,5.01,0.00,29.8,27.5,00.0,38.3,31.1,33.0,0000.0,0010.14,0005.39,0004.63
2022-08-14 17:48:00,,0829.0,4.99,0.00,29.7,27.2,00.0,38.3,31.1,33.2,0000.0,0010.62,0005.37,0004.62
2022-08-14 17:49:00,,0829.0,5.00,0.00,29.7,27.2,00.0,38.3,31.1,32.9,0000.0,0010.79,0005.34,0004.61
2022-08-14 17:50:00,,0829.0,5.01,0.00,29.6,27.3,00.0,38.3,31.0,32.7,0000.0,0010.51,0005.32,0004.62
2022-08-14 17:51:00,,0829.0,4.99,0.00,29.6,27.5,00.0,38.3,31.1,32.7,0000.0,0010.47,0005.27,0004.58
2022-08-14 17:52:00,,0829.0,5.01,0.00,29.6,27.7,00.0,38.3,31.2,32.5,0000.0,0010.36,0005.25,0004.55
2022-08-14 17:53:00,,0828.9,5.00,0.00,29.6,27.8,00.0,38.3,31.2,32.8,0000.0,0010.10,0005.20,0004.51
2022-08-14 17:54:00,,0828.9,4.99,0.00,29.6,28.0,00.0,38.3,31.3,33.1,0000.0,0010.11,0005.15,0004.47
2022-08-14 17:55:00,,0828.9,5.00,0.00,29.6,28.2,00.0,38.3,31.4,32.7,0000.0,0010.23,0005.09,0004.43
2022-08-14 17:56:00,,0828.9,5.00,0.00,29.7,28.1,00.0,38.3,31.3,32.7,0000.0,0010.31,0005.00,0004.39
2022-08-14 17:57:00,,0828.9,5.00,0.00,29.6,27.6,00.0,38.2,31.1,32.9,0000.0,0010.16,0004.93,0004.35
2022-08-14 17:58:00,,0828.9,5.00,0.00,29.6,27.3,00.0,38.2,31.0,33.1,0000.0,0010.28,0004.95,0004.34
2022-08-14 17:59:00,,0828.8,4.99,0.00,29.5,27.3,00.0,38.2,31.1,33.5,0000.0,0009.90,0004.95,0004.31
